Theta_e
293 294 295 295 295 295 294 295 294 295 297 297 296 296 297 298 298 299 301 303 305 308 309 311 315 332 332 333 329 330 331 330 329 329 328 328 328 327 327 326 326 326 326 326
292 295 295 296 296 295 296 295 294 296 297 297 296 295 296 297 297 299 299 300 305 308 308 309 311 321 332 332 332 329 330 330 329 329 329 328 328 328 328 327 326 327 326 326
293 295 295 296 296 297 296 296 297 297 297 297 294 294 294 295 295 298 300 303 303 306 309 311 308 310 324 332 332 328 329 330 330 330 329 329 329 329 329 328 327 327 327 327
293 294 295 296 297 297 298 296 297 298 296 297 296 298 293 293 295 297 299 302 302 306 308 307 311 310 311 325 332 332 328 329 329 329 330 330 330 329 329 328 327 327 327 328
292 294 294 297 297 297 298 297 298 296 295 297 296 295 292 295 296 297 298 303 303 303 304 305 308 312 315 318 320 330 331 328 329 328 330 330 330 330 329 328 328 327 328 329
294 293 295 296 297 297 296 296 294 294 296 290 294 295 296 295 296 296 296 301 300 300 302 303 304 305 308 311 312 314 320 327 328 328 328 329 329 329 329 327 327 327 328 328
291 294 292 296 295 293 294 292 290 288 287 291 294 296 294 295 296 295 296 301 298 296 298 301 303 304 304 306 306 312 316 320 327 328 328 328 328 328 327 326 326 326 326 327
288 290 293 293 293 292 294 293 292 292 296 295 296 297 295 294 294 297 296 296 295 295 295 295 301 302 302 303 304 305 310 316 322 327 328 328 327 327 327 326 326 326 326 326
286 289 291 293 293 294 294 289 294 294 296 296 295 295 294 295 294 295 295 293 292 293 294 294 295 298 301 301 302 303 304 307 313 321 327 327 327 327 327 327 327 327 326 326
288 287 291 293 293 292 294 294 290 289 287 290 294 293 292 292 292 294 294 292 291 292 293 293 293 295 295 298 298 302 302 303 306 310 320 327 327 326 327 327 327 327 328 328
283 290 291 290 289 292 292 291 289 288 292 293 295 293 292 292 292 292 290 291 291 292 292 292 292 293 293 294 296 299 301 301 303 306 312 318 327 327 326 327 327 328 328 328
290 288 293 290 290 291 292 292 292 288 290 294 294 292 292 292 291 290 290 291 291 291 291 290 291 292 292 293 294 298 300 300 301 304 308 314 320 326 327 326 327 327 325 317
290 285 285 290 288 288 287 293 294 292 292 292 293 292 291 290 291 292 291 291 291 291 291 290 290 291 292 292 293 298 299 299 300 302 305 310 314 315 318 321 325 326 322 319
294 287 288 290 290 282 288 289 291 291 293 292 292 292 292 292 292 292 292 292 292 291 290 290 290 290 291 291 293 298 298 297 298 301 302 306 309 312 311 310 314 317 318 315
291 288 288 292 293 293 293 292 292 293 293 293 292 292 292 292 292 292 292 292 291 291 290 290 289 290 290 292 295 298 297 296 297 298 299 301 303 307 309 307 306 307 310 310
289 287 285 291 291 291 291 291 291 292 292 293 293 293 292 292 292 291 291 291 291 291 291 291 291 290 292 294 297 296 296 295 295 296 296 296 299 302 303 303 302 298 297 297
289 285 283 286 289 289 285 286 287 290 291 291 292 292 292 292 292 292 292 291 292 292 292 291 291 291 292 294 296 294 294 293 294 294 294 293 295 295 295 296 297 295 291 293
290 286 287 287 283 290 293 288 287 289 291 290 291 291 291 291 292 292 292 292 292 293 293 293 292 291 292 293 293 292 291 291 291 291 291 291 292 291 291 291 290 290 291 290
290 290 284 282 276 288 290 292 289 288 291 290 290 290 290 291 291 292 292 293 293 293 293 295 294 292 291 292 291 290 290 290 289 289 289 289 290 290 289 289 289 289 290 289
290 292 288 275 282 287 291 293 289 287 290 290 290 292 291 290 292 292 291 291 291 293 292 288 288 288 288 289 290 289 288 288 288 288 288 289 288 288 287 287 287 288 289 287
291 291 291 284 286 287 289 289 288 290 294 293 293 291 290 290 291 291 290 290 293 290 286 287 287 287 288 288 289 288 288 287 287 287 287 287 287 286 287 287 288 288 287 286
286 285 285 283 285 288 288 289 291 293 291 290 287 289 290 289 289 289 288 292 292 288 287 287 287 287 287 288 288 287 285 285 287 287 286 286 286 286 287 286 286 286 285 284
288 289 286 288 289 290 288 290 290 289 289 290 290 290 288 288 288 288 287 293 289 287 288 287 288 288 288 288 287 285 284 286 286 287 286 286 286 286 285 285 284 284 284 283
288 287 288 288 292 291 291 290 289 290 290 290 289 288 286 287 288 288 289 292 289 288 287 288 288 288 286 288 287 286 286 286 285 284 284 285 285 285 285 285 285 284 284 283
290 287 286 288 291 291 291 291 291 291 289 288 287 287 287 287 288 288 290 290 289 288 288 288 288 287 286 288 287 287 287 288 288 286 286 286 286 286 285 285 286 286 285 285
290 291 291 294 294 292 294 292 290 290 289 289 288 288 287 287 287 288 289 289 289 289 288 289 289 289 289 291 289 290 291 291 291 288 288 287 287 284 283 283 282 282 283 283
Wind_Speed
7 8 7 5 3 3 4 4 8 7 8 14 18 22 21 19 19 18 19 11 9 11 12 16 14 28 30 28 32 36 36 38 41 39 35 35 34 33 34 36 36 34 34 34
6 5 4 4 3 3 3 5 7 8 13 14 17 23 17 11 9 17 22 18 11 8 8 13 19 11 21 27 35 36 40 37 44 40 41 35 32 32 32 34 34 34 35 34
3 2 3 3 4 9 5 3 5 10 11 11 8 10 7 17 13 11 15 11 13 11 11 14 8 15 17 27 30 31 37 42 45 43 32 29 26 28 32 37 37 37 37 37
3 4 5 5 4 3 6 3 7 12 14 6 5 9 8 12 10 4 14 14 9 12 14 8 14 12 16 21 29 34 34 35 38 38 33 35 36 29 35 30 30 38 39 39
3 6 7 2 2 1 7 7 9 14 12 4 4 1 7 11 15 5 10 11 12 11 9 11 14 17 7 8 14 21 28 35 34 35 39 35 31 33 27 30 32 34 37 37
4 4 2 3 4 3 7 8 14 2 1 3 5 2 7 5 6 12 8 8 11 13 14 14 19 23 23 16 21 21 21 25 32 36 38 34 35 30 26 27 28 28 33 37
7 2 4 1 5 4 8 5 5 7 5 5 4 10 9 14 18 7 12 7 8 9 13 12 13 18 21 21 20 25 23 22 25 34 35 38 38 34 32 30 30 26 26 30
4 8 1 2 2 3 4 3 3 5 4 14 19 6 5 7 7 6 5 7 5 7 10 13 11 13 17 23 23 23 21 18 22 28 35 35 33 30 31 29 29 29 29 30
4 6 5 2 1 2 3 2 3 4 11 5 4 6 12 10 10 4 5 5 8 12 13 13 17 16 16 19 21 19 18 16 23 17 21 31 31 31 30 33 34 34 34 34
2 6 2 5 4 2 4 1 2 2 4 6 9 13 11 13 13 12 10 10 8 10 13 16 16 21 23 21 24 18 16 20 18 14 17 28 31 33 34 31 32 31 34 33
5 4 6 4 3 5 2 3 2 2 2 3 6 11 5 8 6 10 9 12 16 18 17 16 15 23 27 25 26 23 16 17 18 17 15 12 29 37 34 34 35 36 35 33
6 4 5 10 4 3 5 4 3 4 5 3 6 14 5 13 9 6 15 20 19 18 15 15 18 23 25 23 24 24 17 18 17 17 14 11 11 28 33 33 36 35 30 24
5 1 5 8 5 4 3 3 5 1 2 9 5 9 4 2 15 19 19 20 16 16 19 16 14 14 20 22 21 21 15 17 17 17 15 9 7 10 18 32 37 34 29 20
7 4 8 8 10 2 13 11 11 6 6 7 17 30 34 27 21 21 19 19 18 16 16 15 12 10 19 20 21 16 12 13 14 14 13 9 4 9 12 15 25 31 29 30
5 5 6 15 20 19 25 25 19 18 22 12 28 17 29 25 23 22 21 20 18 16 14 13 10 10 15 18 16 11 11 11 11 9 8 6 2 5 10 13 14 18 30 36
1 4 1 15 11 6 18 20 20 20 20 25 30 33 31 27 20 15 16 15 15 15 15 14 7 8 14 18 12 9 11 11 9 8 6 2 4 8 13 17 18 16 22 27
4 3 4 7 7 12 7 7 6 4 8 7 9 19 17 19 21 19 16 13 13 13 14 13 13 11 19 21 14 7 6 7 5 3 3 3 8 12 16 19 22 24 18 23
4 4 2 5 7 3 4 5 8 10 12 13 16 20 20 21 19 19 13 14 10 17 18 19 13 15 21 21 10 5 3 2 0 2 3 7 13 17 21 24 28 29 27 27
6 4 2 2 2 10 8 2 3 3 10 9 12 13 13 14 14 16 9 3 11 16 18 18 18 22 24 12 6 3 3 4 6 7 8 12 17 22 26 29 32 34 36 33
5 7 5 2 2 6 6 4 5 3 5 6 8 9 9 13 12 15 16 19 16 18 15 15 17 10 5 6 5 4 5 7 9 12 13 17 21 26 28 31 33 37 36 34
5 4 13 6 5 11 13 10 4 4 5 3 5 9 7 5 8 20 19 16 15 9 12 10 5 3 2 3 4 5 8 9 15 19 23 25 29 30 34 34 34 35 32 29
8 8 5 3 3 11 10 5 7 5 2 4 5 9 12 11 13 15 14 12 8 5 7 7 8 7 5 3 8 10 11 13 21 23 27 28 31 30 32 31 30 31 30 28
3 7 5 11 9 5 9 5 4 1 8 16 13 16 9 11 9 13 8 9 5 5 5 6 4 6 6 7 12 17 11 18 23 27 27 26 26 27 25 26 25 27 27 26
5 7 4 2 17 20 19 20 18 18 14 15 12 12 7 9 10 12 5 6 3 5 5 4 6 10 10 10 15 20 19 19 22 23 23 23 24 21 19 20 20 21 22 21
6 8 6 8 23 18 26 21 21 15 7 8 8 7 8 6 8 6 6 5 2 5 2 4 8 11 11 16 17 18 18 20 20 18 17 18 18 18 14 13 15 15 15 18
9 9 8 10 15 9 18 4 5 6 7 8 7 7 7 5 7 5 6 4 1 1 1 6 11 14 14 16 14 12 12 11 12 11 11 11 12 13 14 15 15 10 11 14
Wind_Direction
3 53 34 356 64 220 236 276 287 283 294 330 308 295 304 300 293 290 288 266 256 271 283 285 298 250 235 220 214 208 206 206 204 203 203 205 207 208 214 217 222 225 226 226
28 50 333 306 5 52 40 294 298 289 315 321 298 295 293 291 299 304 293 281 254 260 265 266 264 274 232 229 219 213 208 205 207 205 207 208 207 211 211 221 229 230 232 228
64 293 315 32 355 6 347 276 296 294 308 286 306 296 302 298 302 307 310 312 322 308 261 271 333 303 260 227 228 219 214 209 211 208 205 207 207 215 216 218 224 228 233 231
271 319 348 347 25 38 321 245 296 300 323 301 59 299 299 292 296 350 346 346 335 351 339 311 264 279 293 266 240 231 223 215 214 205 203 203 206 210 219 216 219 229 231 233
277 334 346 331 287 293 259 307 279 296 291 321 297 301 266 298 291 350 4 11 3 356 346 3 1 319 327 359 353 276 245 225 216 206 207 207 214 221 219 218 219 224 232 233
250 292 246 265 296 266 295 318 304 328 349 353 272 54 272 283 264 331 334 342 355 354 349 1 7 11 357 347 335 333 336 249 217 207 206 209 214 217 216 215 216 219 229 233
328 275 290 351 328 321 15 24 347 354 3 244 342 322 265 278 278 272 284 319 340 352 9 354 359 359 1 12 353 319 322 320 228 211 209 212 212 213 213 210 213 217 223 229
36 334 220 41 143 276 320 99 134 302 309 299 297 242 260 281 280 262 10 317 325 354 356 355 341 342 348 349 354 1 307 307 317 216 214 215 218 215 217 218 216 219 220 230
8 279 316 290 295 101 335 27 203 249 265 275 260 300 298 293 327 312 344 311 350 348 343 338 339 329 322 334 335 337 333 305 280 313 225 219 220 221 221 222 223 222 228 231
227 305 294 308 353 260 199 226 6 9 334 308 285 296 259 304 303 295 329 330 320 326 328 326 322 317 319 312 321 316 324 329 323 304 266 227 233 236 230 225 221 220 232 232
132 139 285 14 192 171 13 326 39 123 162 258 307 290 226 272 280 296 310 314 316 314 312 311 308 311 311 309 313 317 322 322 329 318 311 277 223 214 221 224 225 226 231 225
191 163 281 251 222 215 180 223 167 126 284 241 281 270 262 263 281 288 308 304 302 299 296 298 299 303 300 300 304 314 318 325 326 324 315 312 256 221 220 214 219 221 217 207
176 272 323 337 6 357 137 190 217 116 235 243 243 262 220 234 306 302 296 297 297 294 296 295 295 295 292 295 298 306 312 321 326 330 324 318 281 229 206 209 214 214 207 197
155 183 183 221 247 171 283 252 252 251 254 272 239 273 290 296 298 302 299 294 294 297 289 289 287 287 288 289 294 293 306 320 327 331 329 320 295 226 211 193 198 195 189 175
156 222 230 248 264 270 267 272 263 240 240 249 269 271 278 286 291 293 293 290 288 286 285 282 276 283 290 302 294 282 304 319 328 331 330 327 315 195 190 184 176 178 172 172
180 266 67 295 265 288 286 264 257 246 247 246 258 272 272 281 282 285 287 281 280 289 291 286 267 285 301 306 291 277 303 321 334 334 341 8 133 151 151 160 158 146 148 153
173 157 48 262 334 318 287 241 198 210 200 197 226 259 291 297 295 297 296 289 279 283 298 295 295 292 288 290 283 239 279 305 325 339 345 87 118 122 129 134 142 141 108 127
154 119 137 282 343 343 251 255 210 229 250 236 261 270 274 282 291 301 283 282 310 308 304 295 287 291 298 296 260 230 212 240 185 131 143 139 129 126 124 123 117 115 122 113
193 151 304 267 222 297 297 219 150 146 291 221 233 259 267 289 303 300 284 246 306 290 291 295 284 290 289 261 232 191 150 158 146 137 149 150 140 131 125 118 117 118 117 114
177 205 168 64 211 259 239 157 138 126 288 229 214 256 309 330 325 316 328 314 309 306 316 311 312 304 221 173 174 138 161 142 137 136 138 138 133 125 117 118 118 122 121 120
156 194 213 209 255 276 256 230 77 77 257 227 247 280 297 292 280 301 311 312 317 330 339 333 357 41 101 137 125 147 137 120 131 132 129 124 121 116 120 121 123 123 124 131
166 168 192 158 192 269 169 94 179 220 230 247 253 283 296 290 296 307 306 315 328 343 331 352 358 27 45 116 142 107 97 127 124 127 117 116 122 123 125 128 129 130 132 127
251 197 186 193 214 237 204 242 243 311 298 294 289 290 288 291 303 309 298 322 337 338 336 13 30 50 65 108 131 99 97 116 121 118 113 115 119 122 128 131 130 130 137 133
244 173 221 97 248 252 258 248 255 263 256 273 275 276 278 279 308 304 301 325 349 332 329 63 86 66 64 100 124 118 118 115 113 112 120 122 118 120 129 129 134 141 147 145
186 149 190 261 271 279 269 262 262 265 256 265 268 258 272 291 296 293 310 319 8 333 21 82 105 98 96 106 112 119 124 125 126 127 128 131 133 131 130 145 150 162 177 182
194 208 206 231 232 225 268 246 167 214 237 245 258 283 283 247 281 298 305 294 260 253 138 151 150 133 128 122 132 139 139 150 148 150 154 151 149 151 158 153 143 162 183 191